Pittsburgh, PA

1:46 PM EST on December 14, 2019 (GMT -0500)
Pittsburgh International

Weather History for KPIT - November, 2019

Change the Weather History Date:

Sunday, November 17, 2019

  Actual Average Record
Temperature  
Mean Temperature 36 °F 43 °F  
Max Temperature 47 °F 51 °F 75 °F (1958)
Min Temperature 26 °F 34 °F 11 °F (1959)
Degree Days  
Heating Degree Days 28 22  
Month to date heating degree days 485 334  
Since 1 July heating degree days 796 835  
Cooling Degree Days 0 0  
Month to date cooling degree days 0 0  
Year to date cooling degree days 934 736  
Moisture  
Dew Point 21 °F    
Average Humidity 56    
Maximum Humidity 82    
Minimum Humidity 41    
Precipitation  
Precipitation 0.00 in 0.11 in 1.29 in (1929)
Month to date precipitation 0.73 1.78  
Year to date precipitation 48.01 33.89  
Snow  
Snow 0.00 in 0.00 in 8.70 in (1980)
Month to date snowfall 3.0 0.8  
Snow Depth 0.00 in    
Sea Level Pressure  
Sea Level Pressure 30.12 in    
Wind  
Wind Speed 6 mph ()    
Max Wind Speed 14 mph    
Max Gust Speed 20 mph    
Visibility 10.0 miles    
Events      
T = Trace of Precipitation, MM = Missing Value Source: Averaged Metar Reports

Daily Weather History Graph

Daily Weather History Graph

Search for Another Location

Airport or City:

Astronomy

Nov. 17, 2019 Rise Set
Actual Time 7:09 AM EST 5:02 PM EST
Civil Twilight 6:39 AM EST 5:31 PM EST
Nautical Twilight 6:06 AM EST 6:04 PM EST
Astronomical Twilight 5:34 AM EST 6:36 PM EST
Moon 9:36 PM EST (11/17) 11:54 AM EST (11/17)
Length of Visible Light 10h 51m
Length of Day
9h 52m
Waning Gibbous, 73% of the Moon is Illuminated
Nov 17
Waning Gibbous
Nov 19
Last Quarter
Nov 26
New
Dec 4
First Quarter
Dec 12
Full

Hourly Weather History & Observations

Time (EST) Temp. Windchill Dew Point Humidity Pressure Visibility Wind Dir Wind Speed Gust Speed Precip Events Conditions
12:51 AM 28.9 °F 21.9 °F 9.0 °F 43% 30.27 in 10.0 mi East 6.9 mph - N/A   Clear
1:51 AM 28.0 °F 20.0 °F 8.1 °F 43% 30.26 in 10.0 mi East 8.1 mph - N/A   Partly Cloudy
2:51 AM 28.0 °F 20.8 °F 8.1 °F 43% 30.25 in 10.0 mi East 6.9 mph - N/A   Partly Cloudy
3:51 AM 27.0 °F 19.5 °F 8.1 °F 45% 30.25 in 10.0 mi East 6.9 mph - N/A   Clear
4:51 AM 27.0 °F 19.5 °F 8.1 °F 45% 30.24 in 10.0 mi ESE 6.9 mph - N/A   Clear
5:51 AM 27.0 °F 20.5 °F 10.9 °F 51% 30.23 in 10.0 mi East 5.8 mph - N/A   Clear
6:51 AM 27.0 °F 21.6 °F 12.0 °F 53% 30.23 in 10.0 mi East 4.6 mph - N/A   Partly Cloudy
7:51 AM 28.0 °F 22.8 °F 15.1 °F 58% 30.22 in 10.0 mi East 4.6 mph - N/A   Clear
8:51 AM 32.0 °F 26.4 °F 19.0 °F 59% 30.21 in 10.0 mi ESE 5.8 mph - N/A   Clear
9:51 AM 35.1 °F 28.6 °F 21.0 °F 57% 30.20 in 10.0 mi ESE 8.1 mph - N/A   Partly Cloudy
10:51 AM 39.9 °F 33.9 °F 24.1 °F 53% 30.17 in 10.0 mi ESE 9.2 mph - N/A   Partly Cloudy
11:51 AM 43.0 °F 37.7 °F 25.0 °F 49% 30.14 in 10.0 mi ESE 9.2 mph - N/A   Partly Cloudy
12:51 PM 45.0 °F 39.7 °F 25.0 °F 46% 30.11 in 10.0 mi East 10.4 mph - N/A   Partly Cloudy
1:51 PM 46.0 °F 40.2 °F 25.0 °F 44% 30.08 in 10.0 mi ESE 12.7 mph - N/A   Scattered Clouds
2:51 PM 46.0 °F 40.6 °F 26.1 °F 46% 30.05 in 10.0 mi East 11.5 mph 19.6 mph N/A   Mostly Cloudy
3:51 PM 45.0 °F 40.1 °F 27.0 °F 49% 30.04 in 10.0 mi East 9.2 mph - N/A   Mostly Cloudy
4:51 PM 43.0 °F 38.8 °F 27.0 °F 53% 30.04 in 10.0 mi East 6.9 mph - N/A   Mostly Cloudy
5:51 PM 39.9 °F 35.1 °F 27.0 °F 60% 30.03 in 10.0 mi East 6.9 mph - N/A   Mostly Cloudy
6:51 PM 39.0 °F 33.4 °F 28.0 °F 65% 30.02 in 10.0 mi East 8.1 mph - N/A   Mostly Cloudy
7:51 PM 37.0 °F 32.4 °F 28.0 °F 70% 30.01 in 10.0 mi East 5.8 mph - N/A   Overcast
8:51 PM 36.0 °F 31.1 °F 28.0 °F 73% 29.99 in 10.0 mi East 5.8 mph - N/A   Overcast
9:51 PM 34.0 °F 29.8 °F 28.0 °F 79% 29.96 in 10.0 mi East 4.6 mph - N/A   Mostly Cloudy
10:51 PM 33.1 °F 27.7 °F 27.0 °F 78% 29.94 in 10.0 mi East 5.8 mph - N/A   Scattered Clouds
11:51 PM 33.1 °F 27.7 °F 28.0 °F 82% 29.92 in 10.0 mi East 5.8 mph - N/A   Partly Cloudy